Regional Weather Roundup
Issued by NWS

Home | Current Version | Previous Version | Graphics & Text | Print | Product List | Glossary On
Versions: 1 2 3 4 5 6 7 8 9 10 11 12 13 14 15 16 17 18 19 20 21 22 23 24 25 26 27 28 29 30 31 32 33 34 35 36 37 38 39 40 41 42 43 44 45 46 47 48 49 50
000
ASUS43 KMPX 272101
RWRMN
WEATHER ROUNDUP FOR MINNESOTA
NATIONAL WEATHER SERVICE TWIN CITIES/CHANHASSEN MN
300 PM CST FRI FEB 27 2015


NOTE: "FAIR" INDICATES FEW OR NO CLOUDS BELOW 12,000 FEET WITH NO
SIGNIFICANT WEATHER AND/OR OBSTRUCTIONS TO VISIBILITY. N/A MEANS
CURRENT SKY AND/OR WEATHER CONDITIONS ARE NOT AVAILABLE.

MNZ060>063-068>070-272200-
   Twin Cities Metro

CITY           SKY/WX    TMP DP  RH WIND       PRES   REMARKS
TWIN CITIES    SUNNY     15  -1  49 SW8       30.51F WCI   4
ST PAUL        SUNNY     16  -2  45 SW10      30.53F WCI   4
CRYSTAL        SUNNY     16   1  51 SW8       30.50F WCI   5
BLAINE         SUNNY     18   1  49 SW8       30.49F WCI   7
EDEN PRAIRIE   SUNNY     13  -1  54 SW12      30.51F WCI  -1
SOUTH ST PAUL  SUNNY     16   1  49 SW6       30.52S WCI   8
LAKE ELMO      FAIR      18   3  53 SW7       30.51S WCI   8
$$
MNZ001>005-007-008-013>017-022>024-027-028-272200-
   Northwest Minnesota

CITY           SKY/WX    TMP DP  RH WIND       PRES   REMARKS
BEMIDJI        SUNNY     16  -5  40 W8        30.36S WCI   5
HALLOCK        SUNNY     16   3  57 SW12      30.36S WCI   3
ROSEAU         SUNNY     14   0  52 MISG      30.33F
WARROAD        SUNNY     12  -2  52 SW12G18   30.33S WCI  -2
THIEF RVR FALL SUNNY     12   5  73 SW13      30.37F WCI  -3
CROOKSTON      SUNNY     16   5  62 SW15      30.41F WCI   1
FOSSTON        FAIR      16   3  57 SW12      30.39S WCI   3
DETROIT LAKES  SUNNY     16   0  48 W7        30.40F WCI   6
MOORHEAD       SUNNY     18  -8  32 SW7       30.43F WCI   8
PARK RAPIDS    SUNNY     17  -6  35 W9        30.36F WCI   6
MAHNOMEN       FAIR      15   3  58 SW15      30.40S WCI   0
$$
MNZ006-009>011-018-025>026-272200-
   North Central Minnesota

CITY           SKY/WX    TMP DP  RH WIND       PRES   REMARKS
BAUDETTE       SUNNY     18  -5  36 W12       30.30F WCI   5
FLAG ISLAND    MOSUNNY   18  -9  29 SW10G25   30.28S WCI   6
INTL FALLS     SUNNY     18  -8  31 W13       30.31F WCI   5
WASKISH        SUNNY     16  -2  45 CALM      30.35F
BIG FORK       SUNNY     21  -8  27 SW6       30.33S WCI  14
LONGVILLE      SUNNY     19  -8  30 SW9       30.37S WCI   9
GRAND RAPIDS   SUNNY     18  -6  35 SW10      30.34F WCI   6
CRANE LAKE     SUNNY     18 -13  25 SW8       30.34S WCI   7
ORR            SUNNY     19 -13  23 SW9       30.29F WCI   9
COOK           SUNNY     19  -9  27 SW9       30.32F WCI   9
WALKER         FAIR      18  -7  32 NW7       30.36S WCI   8
$$
MNZ012-019>021-037-272200-
   Northeast Minnesota

CITY           SKY/WX    TMP DP  RH WIND       PRES   REMARKS
DULUTH         SUNNY     18  -6  34 W14       30.35F WCI   4
ELY            SUNNY     19 -11  25 W7        30.30F WCI  10
HIBBING        SUNNY     19  -9  28 W9        30.34F WCI   8
EVELETH        SUNNY     18  -6  35 SW7       30.34F WCI   8
DULUTH HARBOR  SUNNY     19  -4  35 SW14G20   30.43F WCI   6
TWO HARBORS    SUNNY     21   0  39 W9G16     30.35S WCI  11
SILVER BAY     SUNNY     25  -8  24 SW9       30.33F WCI  15
GRAND MARAIS     N/A     18   9  68 SW21      30.36F WCI   1
G MARAIS ARPRT SUNNY     18 -15  23 SW9G16    30.26S WCI   6
$$
MNZ029>031-032-039>041-046>048-054>057-064-272200-
   West Central Minnesota

CITY           SKY/WX    TMP DP  RH WIND       PRES   REMARKS
FERGUS FALLS   SUNNY     14  -4  44 CALM      30.47F
WHEATON        SUNNY     12   0  57 S5        30.47F WCI   4
MORRIS         SUNNY     16   1  53 S7        30.44F WCI   6
ALEXANDRIA     SUNNY    N/A N/A N/A SW7       30.42F
ELBOW LAKE     FAIR      11   1  62 SW6       30.44F WCI   2
WADENA         SUNNY     14  -4  44 W7        30.40F WCI   4
GLENWOOD       SUNNY     14   0  52 SW8       30.44S WCI   3
APPLETON       SUNNY     18  -2  41 W3        30.47F
BENSON         SUNNY     16  -2  45 W3        30.47F
ORTONVILLE     SUNNY     16  -4  41 CALM      30.45F
MADISON        SUNNY     16   0  48 W3        30.47F
WILLMAR        FAIR      12   0  57 W7        30.48F WCI   2
$$
MNZ033>034-036-042>043-049>051-058-059-272200-
   Central Minnesota

CITY           SKY/WX    TMP DP  RH WIND       PRES   REMARKS
ST CLOUD       SUNNY     16  -3  43 SW6       30.46F WCI   7
SAUK CENTRE    FAIR      15  -2  47 SW9       30.44F WCI   3
PAYNESVILLE    SUNNY     12  -6  43 SW8       30.46F WCI   1
AITKIN         SUNNY     21 -11  23 SW8       30.39S WCI  12
PINE RIVER     SUNNY     18  -4  38 W7        30.41S WCI   8
BRAINERD       SUNNY     17  -4  39 SW13      30.41F WCI   4
STAPLES        SUNNY     16  -6  38 W7        30.41S WCI   6
LONG PRAIRIE   FAIR      16  -4  41 SW7       30.43F WCI   6
LITTLE FALLS   SUNNY     18  -6  35 SW8       30.44F WCI   7
LITCHFIELD     SUNNY     12   0  57 SW5       30.48F WCI   4
MAPLE LAKE     SUNNY     16   1  50 SW5       30.49F WCI   9
$$
MNZ037-044-045-052-053-272200-
   East Central Minnesota

CITY           SKY/WX    TMP DP  RH WIND       PRES   REMARKS
PRINCETON      SUNNY     19   0  42 SW6       30.46F WCI  11
MORA           SUNNY     18   0  45 SW10      30.47S WCI   6
CAMBRIDGE      SUNNY     18   1  49 SW8       30.46F WCI   7
RUSH CITY      SUNNY     16  -3  43 SW6       30.47F WCI   7
MOOSE LAKE     SUNNY     19  -6  32 W8        30.40S WCI   9
HINCKLEY       FAIR      18   0  45 SW10      30.45S WCI   6
CLOQUET        SUNNY     18 -11  27 SW12      30.37S WCI   5
MCGREGOR       SUNNY     19  -6  32 SW7       30.40F WCI  10
$$
MNZ071>073-080-081-089-090-097-098-272200-
   Southwest Minnesota

CITY           SKY/WX    TMP DP  RH WIND       PRES   REMARKS
MONTEVIDEO     SUNNY     21   5  49 SW6       30.49S WCI  14
GRANITE FALLS  SUNNY     15   2  57 CALM      30.50F
CANBY          SUNNY     15   1  52 SW6       30.46F WCI   7
MARSHALL       SUNNY     12   1  62 SW8       30.48F WCI   1
REDWOOD FALLS  SUNNY     14   2  58 W7        30.49F WCI   4
OLIVIA         SUNNY     14   1  57 W5        30.48F WCI   6
PIPESTONE      SUNNY     10   1  67 W5        30.43S WCI   2
WINDOM         SUNNY     12   1  62 W6        30.47F WCI   3
WORTHINGTON    SUNNY     25  -4  28 SW6       30.48F WCI  18
JACKSON        SUNNY     12   1  62 W9        30.48F WCI   0
TRACY          SUNNY     16   2  55 SW5       30.47S WCI   8
SLAYTON        SUNNY     12  -1  56 CALM      30.45S
$$
MNZ065>067-074>077-082>085-091>093-272200-
   South Central Minnesota

CITY           SKY/WX    TMP DP  RH WIND       PRES   REMARKS
MANKATO        SUNNY     10  -4  52 SW7       30.52S WCI   0
NEW ULM        SUNNY     10  -2  56 CALM      30.51F
ST JAMES       SUNNY     14   1  57 SW3       30.52F
FAIRMONT       SUNNY     12   1  62 SW7       30.50F WCI   2
GLENCOE        SUNNY     13   3  63 W6        30.50F WCI   4
FARIBAULT      SUNNY     12   0  57 SW6       30.52S WCI   3
OWATONNA       SUNNY      9  -2  61 SW6       30.52S WCI  -1
WASECA         SUNNY     12   1  62 SW8       30.54S WCI   1
ALBERT LEA     SUNNY      9   0  66 SW6       30.52S WCI  -1
$$
MNZ078>079-086>088-094>096-272200-
   Southeast Minnesota

CITY           SKY/WX    TMP DP  RH WIND       PRES   REMARKS
ROCHESTER      SUNNY      7  -2  66 W8        30.51F WCI  -6
RED WING       SUNNY     16  -2  45 W8        30.53F WCI   5
STANTON        SUNNY     13  -1  53 W7        30.52S WCI   2
DODGE CENTER   SUNNY      7   0  72 W8        30.50S WCI  -6
WINONA         SUNNY     14   0  52 SW5       30.57S WCI   6
AUSTIN         SUNNY      9  -2  61 SW7       30.52S WCI  -3
PRESTON        SUNNY      6  -4  61 W7        30.53S WCI  -5
$$
ABBREVIATIONS USED IN REMARKS
   TC - TEMPERATURES IN CELSIUS
  WCI - WIND CHILL INDEX
   HX - HEAT INDEX
  VSB - VISIBILITY
$$


USA.gov is the U.S. government's official web portal to all federal, state and local government web resources and services.